Home   Weather   Bamyan   Past weeks

Flag for Afghanistan Past Weather in Bamyan, Afghanistan — Yesterday and Last 2 Weeks

Now
41 °F

Scattered clouds.


Feels Like: 38 °F
Forecast: -5 / 32 °F
Wind: 5 mph from Southeast

Location: Termez Airport

Current Time: Feb 21, 2017 at 4:59:14 pm

Latest Report: Feb 21, 2017 at 4:00 pm


Visibility: N/A

Pressure: 30.21 "Hg (22.24 "Hg at 2492m altitude)

Humidity: 70%

Dew Point: 32 °F

Location of BamyanLocation

Past Weather in Bamyan — Graph

°F

Bamyan Temperature Yesterday

Maximum temperature yesterday: 41 °F (at 3:00 pm)
Minimum temperature yesterday: 19 °F (at 6:30 am)
Average temperature yesterday: 30 °F

High & Low Weather Summary for the Past Weeks

 TemperatureHumidityPressure
High61 °F (Feb 16, 4:00 pm)100% (Feb 11, 4:00 pm)30.72 "Hg (Feb 11, 4:00 pm)
Low19 °F (Feb 20, 6:30 am)29% (Feb 9, 2:00 pm)29.89 "Hg (Feb 18, 1:30 am)
Average40 °F83%30.25 "Hg
* Reported Feb 6 4:00 pm — Feb 21 3:30 pm, Bamyan, Weather by CustomWeather, © 2017

Note: Actual official high and low records may vary slightly from our data, if they occured in-between our weather recording intervals... More about our weather records

Advertising

Bamyan Weather History for the Previous 24 Hours

Scroll right to see more
 ConditionsComfort  
Time TempWeatherWind HumidityBarometerVisibility
3:30 pm
Tue, Feb 21
41 °FScattered clouds.5 mph66%30.24 "HgN/A
3:00 pm41 °FPartly sunny.5 mph66%30.24 "HgN/A
2:30 pm39 °FPartly sunny.6 mph75%30.24 "HgN/A
2:00 pm39 °FPartly sunny.5 mph75%30.24 "HgN/A
1:00 pm37 °FBroken clouds.7 mph70%30.27 "Hg6 mi
12:30 pm36 °FBroken clouds.6 mph75%30.27 "Hg5 mi
12:00 pm36 °FPartly sunny.6 mph75%30.30 "Hg5 mi
11:30 am34 °FPartly sunny.6 mph75%30.30 "Hg4 mi
11:00 am32 °FMostly cloudy.5 mph80%30.33 "Hg4 mi
10:30 am32 °FMostly cloudy.6 mph75%30.33 "Hg4 mi
10:00 am32 °FOvercast.8 mph80%30.33 "Hg4 mi
9:00 am32 °FOvercast.7 mph80%30.33 "Hg4 mi
8:30 am32 °FOvercast.5 mph87%30.33 "Hg4 mi
8:00 am32 °FIce fog.5 mph87%30.33 "Hg3 mi
7:00 am30 °FIce fog.2 mph93%30.30 "Hg3 mi
6:00 am30 °FIce fog.2 mph93%30.30 "Hg2 mi
5:00 am30 °FIce fog.2 mph93%30.30 "Hg2 mi
4:30 am30 °FIce fog.No wind93%30.30 "Hg2 mi
4:00 am30 °FIce fog.No wind93%30.33 "Hg2 mi
3:30 am30 °FIce fog.No wind93%30.33 "Hg1 mi
3:00 am30 °FIce fog.1 mph93%30.33 "Hg1 mi
2:00 am28 °FIce fog.2 mph93%30.33 "Hg1 mi
1:00 am28 °FIce fog.2 mph93%30.36 "Hg1 mi
12:00 am30 °FIce fog.3 mph93%30.36 "Hg1 mi
11:30 pm
Mon, Feb 20
30 °FIce fog.5 mph93%30.36 "Hg0 mi
11:00 pm30 °FIce fog.3 mph93%30.36 "Hg0 mi
10:00 pm30 °FIce fog.2 mph93%30.39 "Hg0 mi
9:30 pm30 °FIce fog.3 mph93%30.39 "Hg0 mi
9:00 pm32 °FIce fog.2 mph87%30.39 "Hg2 mi
8:30 pm32 °FIce fog.No wind87%30.39 "Hg3 mi
8:00 pm32 °FClear.2 mph87%30.39 "Hg4 mi
7:30 pm32 °FClear.3 mph87%30.39 "Hg5 mi
7:00 pm34 °FFog.5 mph81%30.39 "Hg3 mi
6:00 pm37 °FClear.2 mph75%30.39 "Hg10 mi
5:00 pm41 °FSunny.1 mph61%30.39 "Hg10 mi
4:30 pm41 °FSunny.No wind61%30.39 "Hg10 mi
4:00 pm41 °FSunny.2 mph57%30.39 "Hg10 mi
Weather by CustomWeather, © 2017

See weather overviewHow to use our weather pages